Time,TemperatureF,DewpointF,PressureIn,WindDirection,WindDirectionDegrees,WindSpeedMPH,WindSpeedGustMPH,Humidity,HourlyPrecipIn,Conditions,Clouds,dailyrainin,SoftwareType,DateUTC
2013-11-24 00:00:00,15.4,12.2,30.48,NE,34,12.6,25.2,87,0.00,,,0.00,VWS V14.01,2013-11-24 05:00:00,
2013-11-24 00:01:00,15.4,12.2,30.48,WSW,243,1.4,14.0,87,0.00,,,0.00,VWS V14.01,2013-11-24 05:01:00,
2013-11-24 00:02:00,15.3,12.1,30.48,NNW,340,4.2,16.8,87,0.00,,,0.00,VWS V14.01,2013-11-24 05:02:00,
2013-11-24 00:07:00,15.2,11.8,30.48,West,264,5.6,18.2,86,0.00,,,0.00,VWS V14.01,2013-11-24 05:07:00,
2013-11-24 00:12:00,15.2,12.0,30.48,ENE,63,8.4,18.2,87,0.00,,,0.00,VWS V14.01,2013-11-24 05:12:00,
2013-11-24 00:17:00,15.1,11.7,30.48,ENE,64,12.6,19.6,86,0.00,,,0.00,VWS V14.01,2013-11-24 05:17:00,
2013-11-24 00:22:00,15.0,11.8,30.48,NNW,342,9.8,19.6,87,0.00,,,0.00,VWS V14.01,2013-11-24 05:22:00,
2013-11-24 00:27:00,14.9,11.5,30.48,ENE,67,7.0,19.6,86,0.00,,,0.00,VWS V14.01,2013-11-24 05:27:00,
2013-11-24 00:32:00,14.6,10.9,30.48,NNE,30,8.4,19.6,85,0.00,,,0.00,VWS V14.01,2013-11-24 05:32:00,
2013-11-24 00:37:00,14.4,10.7,30.48,NNE,23,7.0,19.6,85,0.00,,,0.00,VWS V14.01,2013-11-24 05:37:00,
2013-11-24 00:42:00,14.5,11.1,30.48,NW,319,4.2,19.6,86,0.00,,,0.00,VWS V14.01,2013-11-24 05:42:00,
2013-11-24 00:47:00,14.6,11.2,30.48,ENE,71,1.4,19.6,86,0.00,,,0.00,VWS V14.01,2013-11-24 05:47:00,
2013-11-24 00:52:00,14.4,11.0,30.48,NNE,19,7.0,19.6,86,0.00,,,0.00,VWS V14.01,2013-11-24 05:52:00,
2013-11-24 00:57:00,14.1,10.7,30.48,NNE,14,4.2,19.6,86,0.00,,,0.00,VWS V14.01,2013-11-24 05:57:00,
2013-11-24 01:00:00,13.4,10.0,30.49,NNE,14,14.0,19.6,86,0.00,,,0.00,VWS V14.01,2013-11-24 06:00:00,
2013-11-24 01:02:00,14.0,10.6,30.48,NNE,20,8.4,19.6,86,0.00,,,0.00,VWS V14.01,2013-11-24 06:02:00,
2013-11-24 01:07:00,13.8,10.4,30.48,WNW,297,2.8,19.6,86,0.00,,,0.00,VWS V14.01,2013-11-24 06:07:00,
2013-11-24 01:12:00,13.7,10.0,30.48,NE,44,9.8,19.6,85,0.00,,,0.00,VWS V14.01,2013-11-24 06:12:00,
2013-11-24 01:17:00,13.6,9.9,30.49,NNE,32,12.6,19.6,85,0.00,,,0.00,VWS V14.01,2013-11-24 06:17:00,
2013-11-24 01:22:00,13.4,10.0,30.48,NNW,327,5.6,19.6,86,0.00,,,0.00,VWS V14.01,2013-11-24 06:22:00,
2013-11-24 01:27:00,13.5,10.1,30.48,NNE,23,9.8,19.6,86,0.00,,,0.00,VWS V14.01,2013-11-24 06:27:00,
2013-11-24 01:32:00,13.2,9.6,30.48,NNE,30,4.2,19.6,85,0.00,,,0.00,VWS V14.01,2013-11-24 06:32:00,
2013-11-24 01:37:00,13.3,9.9,30.48,WSW,249,7.0,19.6,86,0.00,,,0.00,VWS V14.01,2013-11-24 06:37:00,
2013-11-24 01:42:00,13.4,10.3,30.48,NNW,328,8.4,19.6,87,0.00,,,0.00,VWS V14.01,2013-11-24 06:42:00,
2013-11-24 01:47:00,13.3,9.4,30.49,NW,326,8.4,19.6,84,0.00,,,0.00,VWS V14.01,2013-11-24 06:47:00,
2013-11-24 01:52:00,13.4,10.0,30.49,NNE,23,7.0,19.6,86,0.00,,,0.00,VWS V14.01,2013-11-24 06:52:00,
2013-11-24 01:57:00,13.4,10.3,30.49,NE,43,14.0,19.6,87,0.00,,,0.00,VWS V14.01,2013-11-24 06:57:00,
2013-11-24 02:00:00,13.4,10.0,30.49,NNE,14,14.0,19.6,86,0.00,,,0.00,VWS V14.01,2013-11-24 07:00:00,
2013-11-24 02:02:00,13.4,9.7,30.49,NNW,332,5.6,16.8,85,0.00,,,0.00,VWS V14.01,2013-11-24 07:02:00,
2013-11-24 02:07:00,13.5,9.8,30.49,NNE,20,7.0,18.2,85,0.00,,,0.00,VWS V14.01,2013-11-24 07:07:00,
2013-11-24 02:12:00,13.5,10.1,30.49,NNE,16,8.4,21.0,86,0.00,,,0.00,VWS V14.01,2013-11-24 07:12:00,
2013-11-24 02:17:00,13.7,10.6,30.49,ENE,60,8.4,21.0,87,0.00,,,0.00,VWS V14.01,2013-11-24 07:17:00,
2013-11-24 02:22:00,13.4,9.5,30.49,NE,41,9.8,21.0,84,0.00,,,0.00,VWS V14.01,2013-11-24 07:22:00,
2013-11-24 02:27:00,13.2,9.3,30.49,NNE,23,8.4,21.0,84,0.00,,,0.00,VWS V14.01,2013-11-24 07:27:00,
2013-11-24 02:32:00,13.3,9.4,30.49,NNW,332,2.8,21.0,84,0.00,,,0.00,VWS V14.01,2013-11-24 07:32:00,
2013-11-24 02:37:00,13.4,9.7,30.49,NE,43,5.6,21.0,85,0.00,,,0.00,VWS V14.01,2013-11-24 07:37:00,
2013-11-24 02:42:00,13.5,9.6,30.49,NW,326,5.6,21.0,84,0.00,,,0.00,VWS V14.01,2013-11-24 07:42:00,
2013-11-24 02:47:00,13.5,10.1,30.49,NNW,338,4.2,21.0,86,0.00,,,0.00,VWS V14.01,2013-11-24 07:47:00,
2013-11-24 02:52:00,13.4,9.7,30.49,NNW,330,4.2,21.0,85,0.00,,,0.00,VWS V14.01,2013-11-24 07:52:00,
2013-11-24 02:57:00,13.5,9.8,30.49,NNE,26,4.2,21.0,85,0.00,,,0.00,VWS V14.01,2013-11-24 07:57:00,
2013-11-24 03:00:00,13.1,9.7,30.49,NNE,12,0.0,21.0,86,0.00,,,0.00,VWS V14.01,2013-11-24 08:00:00,
2013-11-24 03:02:00,13.6,9.9,30.49,ENE,63,4.2,21.0,85,0.00,,,0.00,VWS V14.01,2013-11-24 08:02:00,
2013-11-24 03:07:00,13.5,9.8,30.49,NW,315,7.0,21.0,85,0.00,,,0.00,VWS V14.01,2013-11-24 08:07:00,
2013-11-24 03:12:00,13.3,9.6,30.49,NNE,16,9.8,21.0,85,0.00,,,0.00,VWS V14.01,2013-11-24 08:12:00,
2013-11-24 03:16:00,13.3,9.6,30.49,NNW,328,5.6,21.0,85,0.00,,,0.00,VWS V14.01,2013-11-24 08:16:00,
2013-11-24 03:21:00,13.5,10.4,30.49,North,355,8.4,21.0,87,0.00,,,0.00,VWS V14.01,2013-11-24 08:21:00,
2013-11-24 03:26:00,13.5,10.1,30.49,North,357,11.2,21.0,86,0.00,,,0.00,VWS V14.01,2013-11-24 08:26:00,
2013-11-24 03:31:00,13.3,10.2,30.49,NNW,333,7.0,21.0,87,0.00,,,0.00,VWS V14.01,2013-11-24 08:31:00,
2013-11-24 03:36:00,13.3,10.2,30.49,NE,36,9.8,21.0,87,0.00,,,0.00,VWS V14.01,2013-11-24 08:36:00,
2013-11-24 03:41:00,13.4,10.5,30.49,NNE,19,7.0,21.0,88,0.00,,,0.00,VWS V14.01,2013-11-24 08:41:00,
2013-11-24 03:46:00,13.3,10.2,30.49,NNW,332,7.0,21.0,87,0.00,,,0.00,VWS V14.01,2013-11-24 08:46:00,
2013-11-24 03:51:00,13.4,10.3,30.49,ENE,60,7.0,21.0,87,0.00,,,0.00,VWS V14.01,2013-11-24 08:51:00,
2013-11-24 03:56:00,13.1,9.4,30.49,NNW,343,1.4,21.0,85,0.00,,,0.00,VWS V14.01,2013-11-24 08:56:00,
2013-11-24 04:00:00,13.1,9.7,30.49,NNE,12,0.0,21.0,86,0.00,,,0.00,VWS V14.01,2013-11-24 09:00:00,
2013-11-24 04:01:00,13.2,9.8,30.49,NNE,18,9.8,11.2,86,0.00,,,0.00,VWS V14.01,2013-11-24 09:01:00,
2013-11-24 04:06:00,13.2,10.1,30.49,NNW,327,2.8,15.4,87,0.00,,,0.00,VWS V14.01,2013-11-24 09:06:00,
2013-11-24 04:11:00,13.2,10.3,30.49,NW,326,9.8,15.4,88,0.00,,,0.00,VWS V14.01,2013-11-24 09:11:00,
2013-11-24 04:16:00,13.4,10.3,30.49,NNE,25,1.4,15.4,87,0.00,,,0.00,VWS V14.01,2013-11-24 09:16:00,
2013-11-24 04:21:00,13.3,10.2,30.49,NE,39,2.8,15.4,87,0.00,,,0.00,VWS V14.01,2013-11-24 09:21:00,
2013-11-24 04:26:00,13.4,10.3,30.49,NNW,328,2.8,15.4,87,0.00,,,0.00,VWS V14.01,2013-11-24 09:26:00,
2013-11-24 04:31:00,13.2,10.1,30.49,North,6,7.0,15.4,87,0.00,,,0.00,VWS V14.01,2013-11-24 09:31:00,
2013-11-24 04:36:00,12.9,9.5,30.49,ENE,60,8.4,15.4,86,0.00,,,0.00,VWS V14.01,2013-11-24 09:36:00,
2013-11-24 04:41:00,12.7,9.6,30.49,NE,36,2.8,15.4,87,0.00,,,0.00,VWS V14.01,2013-11-24 09:41:00,
2013-11-24 04:46:00,12.5,9.1,30.49,NW,319,2.8,15.4,86,0.00,,,0.00,VWS V14.01,2013-11-24 09:46:00,
2013-11-24 04:51:00,12.4,9.3,30.49,NNW,347,1.4,15.4,87,0.00,,,0.00,VWS V14.01,2013-11-24 09:51:00,
2013-11-24 04:56:00,12.4,9.3,30.49,South,184,0.0,15.4,87,0.00,,,0.00,VWS V14.01,2013-11-24 09:56:00,
2013-11-24 05:00:00,10.9,8.1,30.52,North,8,7.0,15.4,88,0.00,,,0.00,VWS V14.01,2013-11-24 10:00:00,
2013-11-24 05:01:00,12.2,9.1,30.50,NNW,328,2.8,15.4,87,0.00,,,0.00,VWS V14.01,2013-11-24 10:01:00,
2013-11-24 05:06:00,12.1,9.0,30.50,NNE,29,7.0,15.4,87,0.00,,,0.00,VWS V14.01,2013-11-24 10:06:00,
2013-11-24 05:11:00,11.9,8.8,30.50,North,1,5.6,15.4,87,0.00,,,0.00,VWS V14.01,2013-11-24 10:11:00,
2013-11-24 05:16:00,11.7,8.6,30.50,NNW,345,1.4,15.4,87,0.00,,,0.00,VWS V14.01,2013-11-24 10:16:00,
2013-11-24 05:21:00,11.7,8.6,30.50,North,352,4.2,15.4,87,0.00,,,0.00,VWS V14.01,2013-11-24 10:21:00,
2013-11-24 05:26:00,11.7,8.6,30.50,ESE,109,2.8,15.4,87,0.00,,,0.00,VWS V14.01,2013-11-24 10:26:00,
2013-11-24 05:31:00,11.6,8.5,30.51,NE,53,4.2,15.4,87,0.00,,,0.00,VWS V14.01,2013-11-24 10:31:00,
2013-11-24 05:36:00,11.4,8.3,30.50,North,4,5.6,15.4,87,0.00,,,0.00,VWS V14.01,2013-11-24 10:36:00,
2013-11-24 05:41:00,11.4,8.5,30.51,ENE,67,5.6,15.4,88,0.00,,,0.00,VWS V14.01,2013-11-24 10:41:00,
2013-11-24 05:46:00,11.1,8.0,30.51,North,1,2.8,15.4,87,0.00,,,0.00,VWS V14.01,2013-11-24 10:46:00,
2013-11-24 05:51:00,11.0,7.9,30.51,NE,46,1.4,15.4,87,0.00,,,0.00,VWS V14.01,2013-11-24 10:51:00,
2013-11-24 05:56:00,11.0,8.1,30.51,NW,315,4.2,15.4,88,0.00,,,0.00,VWS V14.01,2013-11-24 10:56:00,
2013-11-24 06:00:00,10.9,8.1,30.52,North,8,7.0,15.4,88,0.00,,,0.00,VWS V14.01,2013-11-24 11:00:00,
2013-11-24 06:01:00,10.9,8.1,30.52,NE,34,5.6,8.4,88,0.00,,,0.00,VWS V14.01,2013-11-24 11:01:00,
2013-11-24 06:06:00,10.7,7.8,30.52,ENE,69,1.4,9.8,88,0.00,,,0.00,VWS V14.01,2013-11-24 11:06:00,
2013-11-24 06:11:00,10.7,7.8,30.52,NW,311,0.0,9.8,88,0.00,,,0.00,VWS V14.01,2013-11-24 11:11:00,
2013-11-24 06:16:00,10.4,7.3,30.52,ESE,103,0.0,9.8,87,0.00,,,0.00,VWS V14.01,2013-11-24 11:16:00,
2013-11-24 06:21:00,10.3,7.2,30.52,NE,53,5.6,9.8,87,0.00,,,0.00,VWS V14.01,2013-11-24 11:21:00,
2013-11-24 06:26:00,10.2,7.4,30.52,North,6,4.2,9.8,88,0.00,,,0.00,VWS V14.01,2013-11-24 11:26:00,
2013-11-24 06:31:00,10.3,7.5,30.52,NE,40,4.2,9.8,88,0.00,,,0.00,VWS V14.01,2013-11-24 11:31:00,
2013-11-24 06:36:00,10.2,7.4,30.52,East,80,8.4,9.8,88,0.00,,,0.00,VWS V14.01,2013-11-24 11:36:00,
2013-11-24 06:41:00,10.2,7.4,30.52,ENE,74,1.4,9.8,88,0.00,,,0.00,VWS V14.01,2013-11-24 11:41:00,
2013-11-24 06:46:00,10.0,7.2,30.52,NE,46,8.4,11.2,88,0.00,,,0.00,VWS V14.01,2013-11-24 11:46:00,
2013-11-24 06:51:00,9.9,7.1,30.52,ENE,74,0.0,11.2,88,0.00,,,0.00,VWS V14.01,2013-11-24 11:51:00,
2013-11-24 06:56:00,10.0,7.2,30.52,ENE,63,4.2,11.2,88,0.00,,,0.00,VWS V14.01,2013-11-24 11:56:00,
2013-11-24 07:00:00,10.4,7.6,30.52,ESE,116,2.8,15.4,88,0.00,,,0.00,VWS V14.01,2013-11-24 12:00:00,
2013-11-24 07:01:00,10.0,7.4,30.53,ENE,58,2.8,11.2,89,0.00,,,0.00,VWS V14.01,2013-11-24 12:01:00,
2013-11-24 07:06:00,10.0,7.2,30.52,SE,138,4.2,11.2,88,0.00,,,0.00,VWS V14.01,2013-11-24 12:06:00,
2013-11-24 07:11:00,10.0,7.2,30.53,NE,53,2.8,11.2,88,0.00,,,0.00,VWS V14.01,2013-11-24 12:11:00,
2013-11-24 07:16:00,10.0,7.2,30.52,ESE,102,5.6,11.2,88,0.00,,,0.00,VWS V14.01,2013-11-24 12:16:00,
2013-11-24 07:21:00,10.0,7.2,30.52,East,88,5.6,11.2,88,0.00,,,0.00,VWS V14.01,2013-11-24 12:21:00,
2013-11-24 07:26:00,9.9,7.1,30.53,East,98,1.4,11.2,88,0.00,,,0.00,VWS V14.01,2013-11-24 12:26:00,
2013-11-24 07:31:00,9.9,7.1,30.53,East,89,5.6,11.2,88,0.00,,,0.00,VWS V14.01,2013-11-24 12:31:00,
2013-11-24 07:36:00,10.0,7.4,30.52,SSE,150,5.6,11.2,89,0.00,,,0.00,VWS V14.01,2013-11-24 12:36:00,
2013-11-24 07:41:00,10.1,7.5,30.52,SE,125,9.8,11.2,89,0.00,,,0.00,VWS V14.01,2013-11-24 12:41:00,
2013-11-24 07:46:00,10.6,8.2,30.52,East,93,14.0,15.4,90,0.00,,,0.00,VWS V14.01,2013-11-24 12:46:00,
2013-11-24 07:51:00,10.6,8.0,30.52,East,86,5.6,15.4,89,0.00,,,0.00,VWS V14.01,2013-11-24 12:51:00,
2013-11-24 07:56:00,10.6,8.0,30.52,SE,134,2.8,15.4,89,0.00,,,0.00,VWS V14.01,2013-11-24 12:56:00,
2013-11-24 08:00:00,10.4,7.6,30.52,ESE,116,2.8,15.4,88,0.00,,,0.00,VWS V14.01,2013-11-24 13:00:00,
2013-11-24 08:01:00,10.3,7.5,30.52,SSE,153,0.0,2.8,88,0.00,,,0.00,VWS V14.01,2013-11-24 13:01:00,
2013-11-24 08:06:00,9.9,7.1,30.52,South,184,2.8,11.2,88,0.00,,,0.00,VWS V14.01,2013-11-24 13:06:00,
2013-11-24 08:11:00,9.3,6.0,30.53,SW,232,1.4,11.2,86,0.00,,,0.00,VWS V14.01,2013-11-24 13:11:00,
2013-11-24 08:16:00,9.0,5.9,30.52,SSE,167,0.0,11.2,87,0.00,,,0.00,VWS V14.01,2013-11-24 13:16:00,
2013-11-24 08:21:00,8.9,5.8,30.53,SW,218,0.0,11.2,87,0.00,,,0.00,VWS V14.01,2013-11-24 13:21:00,
2013-11-24 08:26:00,8.7,5.6,30.53,SSE,162,4.2,11.2,87,0.00,,,0.00,VWS V14.01,2013-11-24 13:26:00,
2013-11-24 08:31:00,8.5,5.4,30.53,South,174,2.8,11.2,87,0.00,,,0.00,VWS V14.01,2013-11-24 13:31:00,
2013-11-24 08:36:00,8.5,5.7,30.53,South,186,1.4,11.2,88,0.00,,,0.00,VWS V14.01,2013-11-24 13:36:00,
2013-11-24 08:41:00,8.4,5.3,30.53,SW,217,1.4,11.2,87,0.00,,,0.00,VWS V14.01,2013-11-24 13:41:00,
2013-11-24 08:46:00,8.4,5.3,30.53,SW,225,2.8,11.2,87,0.00,,,0.00,VWS V14.01,2013-11-24 13:46:00,
2013-11-24 08:51:00,8.4,5.6,30.53,SW,222,1.4,11.2,88,0.00,,,0.00,VWS V14.01,2013-11-24 13:51:00,
2013-11-24 08:56:00,8.5,5.7,30.53,SSW,200,1.4,11.2,88,0.00,,,0.00,VWS V14.01,2013-11-24 13:56:00,
2013-11-24 09:00:00,9.0,5.7,30.53,SSE,165,1.4,11.2,86,0.00,,,0.00,VWS V14.01,2013-11-24 14:00:00,
2013-11-24 09:01:00,8.4,5.3,30.53,SW,233,2.8,11.2,87,0.00,,,0.00,VWS V14.01,2013-11-24 14:01:00,
2013-11-24 09:06:00,8.4,5.3,30.53,SW,229,4.2,11.2,87,0.00,,,0.00,VWS V14.01,2013-11-24 14:06:00,
2013-11-24 09:11:00,8.5,5.7,30.53,SW,221,0.0,11.2,88,0.00,,,0.00,VWS V14.01,2013-11-24 14:11:00,
2013-11-24 09:16:00,8.5,5.7,30.53,SSE,163,2.8,11.2,88,0.00,,,0.00,VWS V14.01,2013-11-24 14:16:00,
2013-11-24 09:21:00,8.5,5.4,30.53,SSE,162,9.8,11.2,87,0.00,,,0.00,VWS V14.01,2013-11-24 14:21:00,
2013-11-24 09:26:00,8.7,5.6,30.53,South,169,2.8,11.2,87,0.00,,,0.00,VWS V14.01,2013-11-24 14:26:00,
2013-11-24 09:31:00,9.0,5.9,30.53,SSE,168,4.2,11.2,87,0.00,,,0.00,VWS V14.01,2013-11-24 14:31:00,
2013-11-24 09:36:00,9.1,6.0,30.53,SSW,194,2.8,11.2,87,0.00,,,0.00,VWS V14.01,2013-11-24 14:36:00,
2013-11-24 09:41:00,9.1,5.8,30.53,SSE,163,9.8,11.2,86,0.00,,,0.00,VWS V14.01,2013-11-24 14:41:00,
2013-11-24 09:46:00,9.1,5.8,30.53,SE,136,2.8,11.2,86,0.00,,,0.00,VWS V14.01,2013-11-24 14:46:00,
2013-11-24 09:51:00,9.1,5.8,30.52,SW,222,5.6,11.2,86,0.00,,,0.00,VWS V14.01,2013-11-24 14:51:00,
2013-11-24 09:56:00,8.9,5.6,30.53,SE,128,4.2,11.2,86,0.00,,,0.00,VWS V14.01,2013-11-24 14:56:00,
2013-11-24 10:00:00,9.0,5.7,30.53,SSE,165,1.4,11.2,86,0.00,,,0.00,VWS V14.01,2013-11-24 15:00:00,
2013-11-24 10:01:00,9.1,5.8,30.52,SSE,158,5.6,7.0,86,0.00,,,0.00,VWS V14.01,2013-11-24 15:01:00,
2013-11-24 10:06:00,9.7,6.4,30.52,SSE,167,4.2,7.0,86,0.00,,,0.00,VWS V14.01,2013-11-24 15:06:00,
2013-11-24 10:11:00,10.5,6.9,30.52,SSE,167,8.4,9.8,85,0.00,,,0.00,VWS V14.01,2013-11-24 15:11:00,
2013-11-24 10:16:00,10.7,7.1,30.53,SSE,153,7.0,11.2,85,0.00,,,0.00,VWS V14.01,2013-11-24 15:16:00,
2013-11-24 10:21:00,10.6,7.0,30.52,SSW,195,5.6,11.2,85,0.00,,,0.00,VWS V14.01,2013-11-24 15:21:00,
2013-11-24 10:26:00,10.5,6.9,30.52,ESE,105,2.8,12.6,85,0.00,,,0.00,VWS V14.01,2013-11-24 15:26:00,
2013-11-24 10:31:00,10.6,7.0,30.52,SSW,199,0.0,12.6,85,0.00,,,0.00,VWS V14.01,2013-11-24 15:31:00,
2013-11-24 10:36:00,11.0,7.6,30.52,NE,53,2.8,12.6,86,0.00,,,0.00,VWS V14.01,2013-11-24 15:36:00,
2013-11-24 10:41:00,11.9,8.8,30.52,NE,34,4.2,12.6,87,0.00,,,0.00,VWS V14.01,2013-11-24 15:41:00,
2013-11-24 10:46:00,12.1,8.5,30.52,ESE,113,5.6,12.6,85,0.00,,,0.00,VWS V14.01,2013-11-24 15:46:00,
2013-11-24 10:51:00,12.2,9.1,30.52,East,87,5.6,12.6,87,0.00,,,0.00,VWS V14.01,2013-11-24 15:51:00,
2013-11-24 10:56:00,13.3,10.7,30.52,East,92,7.0,12.6,89,0.00,,,0.00,VWS V14.01,2013-11-24 15:56:00,
2013-11-24 11:00:00,13.6,9.9,30.50,South,171,4.2,12.6,85,0.00,,,0.00,VWS V14.01,2013-11-24 16:00:00,
2013-11-24 11:01:00,13.3,10.4,30.53,SE,129,8.4,12.6,88,0.00,,,0.00,VWS V14.01,2013-11-24 16:01:00,
2013-11-24 11:06:00,13.0,9.9,30.52,ENE,64,4.2,12.6,87,0.00,,,0.00,VWS V14.01,2013-11-24 16:06:00,
2013-11-24 11:11:00,12.9,9.8,30.52,ENE,61,5.6,12.6,87,0.00,,,0.00,VWS V14.01,2013-11-24 16:11:00,
2013-11-24 11:16:00,12.9,9.8,30.52,East,82,5.6,12.6,87,0.00,,,0.00,VWS V14.01,2013-11-24 16:16:00,
2013-11-24 11:21:00,13.1,10.2,30.52,North,360,5.6,12.6,88,0.00,,,0.00,VWS V14.01,2013-11-24 16:21:00,
2013-11-24 11:26:00,13.1,10.0,30.52,East,97,5.6,12.6,87,0.00,,,0.00,VWS V14.01,2013-11-24 16:26:00,
2013-11-24 11:31:00,13.0,9.9,30.51,SE,125,2.8,12.6,87,0.00,,,0.00,VWS V14.01,2013-11-24 16:31:00,
2013-11-24 11:36:00,13.2,10.1,30.51,SE,145,4.2,12.6,87,0.00,,,0.00,VWS V14.01,2013-11-24 16:36:00,
2013-11-24 11:41:00,13.5,10.1,30.51,SSE,150,2.8,12.6,86,0.00,,,0.00,VWS V14.01,2013-11-24 16:41:00,
2013-11-24 11:46:00,13.7,10.3,30.51,SSE,148,2.8,12.6,86,0.00,,,0.00,VWS V14.01,2013-11-24 16:46:00,
2013-11-24 11:51:00,13.8,10.4,30.51,SSE,163,4.2,12.6,86,0.00,,,0.00,VWS V14.01,2013-11-24 16:51:00,
2013-11-24 11:56:00,13.7,10.0,30.50,SSE,162,5.6,12.6,85,0.00,,,0.00,VWS V14.01,2013-11-24 16:56:00,
2013-11-24 12:00:00,13.6,9.9,30.50,South,171,4.2,12.6,85,0.00,,,0.00,VWS V14.01,2013-11-24 17:00:00,
2013-11-24 12:01:00,13.7,10.0,30.50,SSE,163,2.8,5.6,85,0.00,,,0.00,VWS V14.01,2013-11-24 17:01:00,
2013-11-24 12:06:00,13.8,10.1,30.50,SSE,155,2.8,8.4,85,0.00,,,0.00,VWS V14.01,2013-11-24 17:06:00,
2013-11-24 12:11:00,13.9,10.2,30.49,South,172,5.6,8.4,85,0.00,,,0.00,VWS V14.01,2013-11-24 17:11:00,
2013-11-24 12:16:00,14.0,10.3,30.49,South,186,2.8,8.4,85,0.00,,,0.00,VWS V14.01,2013-11-24 17:16:00,
2013-11-24 12:21:00,14.1,10.4,30.48,South,169,4.2,8.4,85,0.00,,,0.00,VWS V14.01,2013-11-24 17:21:00,
2013-11-24 12:26:00,14.1,10.4,30.48,SSE,149,1.4,8.4,85,0.00,,,0.00,VWS V14.01,2013-11-24 17:26:00,
2013-11-24 12:31:00,14.2,10.5,30.48,SSE,155,5.6,8.4,85,0.00,,,0.00,VWS V14.01,2013-11-24 17:31:00,
2013-11-24 12:36:00,13.9,10.0,30.48,SSE,152,5.6,12.6,84,0.00,,,0.00,VWS V14.01,2013-11-24 17:36:00,
2013-11-24 12:41:00,13.7,9.8,30.48,SW,221,1.4,12.6,84,0.00,,,0.00,VWS V14.01,2013-11-24 17:41:00,
2013-11-24 12:46:00,13.9,10.2,30.48,SE,134,2.8,12.6,85,0.00,,,0.00,VWS V14.01,2013-11-24 17:46:00,
2013-11-24 12:51:00,13.9,10.0,30.48,SSW,195,2.8,12.6,84,0.00,,,0.00,VWS V14.01,2013-11-24 17:51:00,
2013-11-24 12:56:00,13.8,9.9,30.47,SSE,157,4.2,12.6,84,0.00,,,0.00,VWS V14.01,2013-11-24 17:56:00,
2013-11-24 13:00:00,13.9,10.2,30.47,South,174,4.2,12.6,85,0.00,,,0.00,VWS V14.01,2013-11-24 18:00:00,
2013-11-24 13:06:00,14.1,10.4,30.47,SSE,165,4.2,12.6,85,0.00,,,0.00,VWS V14.01,2013-11-24 18:06:00,
2013-11-24 13:10:00,14.1,10.2,30.47,South,191,4.2,12.6,84,0.00,,,0.00,VWS V14.01,2013-11-24 18:10:00,
2013-11-24 13:16:00,14.2,10.3,30.47,South,174,4.2,12.6,84,0.00,,,0.00,VWS V14.01,2013-11-24 18:16:00,
2013-11-24 13:20:00,14.2,10.3,30.47,SW,229,2.8,12.6,84,0.00,,,0.00,VWS V14.01,2013-11-24 18:20:00,
2013-11-24 13:25:00,14.2,10.3,30.46,South,178,5.6,12.6,84,0.00,,,0.00,VWS V14.01,2013-11-24 18:25:00,
2013-11-24 13:30:00,14.2,10.0,30.47,SSW,205,5.6,12.6,83,0.00,,,0.00,VWS V14.01,2013-11-24 18:30:00,
2013-11-24 13:35:00,14.3,10.1,30.47,SSW,194,1.4,12.6,83,0.00,,,0.00,VWS V14.01,2013-11-24 18:35:00,
2013-11-24 13:40:00,14.3,10.1,30.47,SW,236,2.8,12.6,83,0.00,,,0.00,VWS V14.01,2013-11-24 18:40:00,
2013-11-24 13:45:00,14.5,10.3,30.47,SSE,159,7.0,12.6,83,0.00,,,0.00,VWS V14.01,2013-11-24 18:45:00,
2013-11-24 13:50:00,14.9,10.9,30.46,SSE,162,5.6,12.6,84,0.00,,,0.00,VWS V14.01,2013-11-24 18:50:00,
2013-11-24 13:55:00,15.2,10.7,30.46,SSE,162,4.2,12.6,82,0.00,,,0.00,VWS V14.01,2013-11-24 18:55:00,
2013-11-24 14:00:00,15.4,10.9,30.46,SE,139,4.2,7.0,82,0.00,,,0.00,VWS V14.01,2013-11-24 19:00:00,
2013-11-24 14:05:00,15.6,11.1,30.46,SE,146,2.8,8.4,82,0.00,,,0.00,VWS V14.01,2013-11-24 19:05:00,
2013-11-24 14:10:00,15.8,11.3,30.46,SSE,151,2.8,8.4,82,0.00,,,0.00,VWS V14.01,2013-11-24 19:10:00,
2013-11-24 14:15:00,16.1,11.0,30.46,South,169,4.2,8.4,80,0.00,,,0.00,VWS V14.01,2013-11-24 19:15:00,
2013-11-24 14:20:00,16.1,11.0,30.45,SSE,163,2.8,8.4,80,0.00,,,0.00,VWS V14.01,2013-11-24 19:20:00,
2013-11-24 14:25:00,16.0,10.9,30.45,SSE,158,4.2,8.4,80,0.00,,,0.00,VWS V14.01,2013-11-24 19:25:00,
2013-11-24 14:30:00,15.8,10.7,30.45,South,169,4.2,8.4,80,0.00,,,0.00,VWS V14.01,2013-11-24 19:30:00,
2013-11-24 14:35:00,15.8,11.3,30.45,SSE,162,0.0,8.4,82,0.00,,,0.00,VWS V14.01,2013-11-24 19:35:00,
2013-11-24 14:40:00,15.8,11.3,30.45,South,174,2.8,8.4,82,0.00,,,0.00,VWS V14.01,2013-11-24 19:40:00,
2013-11-24 14:45:00,15.6,11.1,30.45,SSE,166,5.6,8.4,82,0.00,,,0.00,VWS V14.01,2013-11-24 19:45:00,
2013-11-24 14:50:00,15.5,11.3,30.45,South,174,1.4,8.4,83,0.00,,,0.00,VWS V14.01,2013-11-24 19:50:00,
2013-11-24 14:55:00,15.5,11.3,30.45,SSW,211,1.4,8.4,83,0.00,,,0.00,VWS V14.01,2013-11-24 19:55:00,
2013-11-24 15:00:00,15.7,11.5,30.44,South,189,2.8,8.4,83,0.00,,,0.00,VWS V14.01,2013-11-24 20:00:00,
2013-11-24 15:05:00,15.8,11.6,30.44,SSE,166,1.4,8.4,83,0.00,,,0.00,VWS V14.01,2013-11-24 20:05:00,
2013-11-24 15:10:00,15.8,11.6,30.44,SSE,161,4.2,8.4,83,0.00,,,0.00,VWS V14.01,2013-11-24 20:10:00,
2013-11-24 15:15:00,15.9,11.7,30.44,SSE,153,4.2,8.4,83,0.00,,,0.00,VWS V14.01,2013-11-24 20:15:00,
2013-11-24 15:20:00,16.0,11.8,30.43,SSE,163,7.0,8.4,83,0.00,,,0.00,VWS V14.01,2013-11-24 20:20:00,
2013-11-24 15:25:00,16.2,12.0,30.43,SSE,153,2.8,8.4,83,0.00,,,0.00,VWS V14.01,2013-11-24 20:25:00,
2013-11-24 15:30:00,16.3,12.1,30.43,SE,141,2.8,8.4,83,0.00,,,0.00,VWS V14.01,2013-11-24 20:30:00,
2013-11-24 15:35:00,16.3,12.1,30.42,SSE,162,4.2,8.4,83,0.00,,,0.00,VWS V14.01,2013-11-24 20:35:00,
2013-11-24 15:40:00,16.3,12.1,30.42,SSE,153,2.8,8.4,83,0.00,,,0.00,VWS V14.01,2013-11-24 20:40:00,
2013-11-24 15:45:00,16.3,12.1,30.42,SSE,166,4.2,8.4,83,0.00,,,0.00,VWS V14.01,2013-11-24 20:45:00,
2013-11-24 15:50:00,16.3,12.3,30.42,South,170,0.0,8.4,84,0.00,,,0.00,VWS V14.01,2013-11-24 20:50:00,
2013-11-24 15:55:00,16.3,12.3,30.42,South,176,2.8,8.4,84,0.00,,,0.00,VWS V14.01,2013-11-24 20:55:00,
2013-11-24 16:00:00,16.3,12.3,30.42,SSE,166,1.4,2.8,84,0.00,,,0.00,VWS V14.01,2013-11-24 21:00:00,
2013-11-24 16:05:00,16.4,12.7,30.42,South,174,1.4,2.8,85,0.00,,,0.00,VWS V14.01,2013-11-24 21:05:00,
2013-11-24 16:10:00,16.3,12.6,30.42,SSE,165,2.8,2.8,85,0.00,,,0.00,VWS V14.01,2013-11-24 21:10:00,
2013-11-24 16:15:00,16.2,12.5,30.42,South,191,2.8,4.2,85,0.00,,,0.00,VWS V14.01,2013-11-24 21:15:00,
2013-11-24 16:20:00,16.1,12.4,30.42,SW,214,4.2,4.2,85,0.00,,,0.00,VWS V14.01,2013-11-24 21:20:00,
2013-11-24 16:25:00,16.0,12.3,30.41,South,170,2.8,5.6,85,0.00,,,0.00,VWS V14.01,2013-11-24 21:25:00,
2013-11-24 16:30:00,15.9,12.2,30.41,South,169,5.6,7.0,85,0.00,,,0.00,VWS V14.01,2013-11-24 21:30:00,
2013-11-24 16:35:00,15.9,12.2,30.41,South,178,2.8,7.0,85,0.00,,,0.00,VWS V14.01,2013-11-24 21:35:00,
2013-11-24 16:40:00,15.9,12.2,30.41,SSE,162,1.4,7.0,85,0.00,,,0.00,VWS V14.01,2013-11-24 21:40:00,
2013-11-24 16:45:00,15.9,12.2,30.40,SSE,165,4.2,7.0,85,0.00,,,0.00,VWS V14.01,2013-11-24 21:45:00,
2013-11-24 16:50:00,16.0,12.6,30.39,South,169,4.2,7.0,86,0.00,,,0.00,VWS V14.01,2013-11-24 21:50:00,
2013-11-24 16:55:00,16.1,12.7,30.39,SSW,212,0.0,7.0,86,0.00,,,0.00,VWS V14.01,2013-11-24 21:55:00,
2013-11-24 17:00:00,16.1,12.7,30.39,South,183,1.4,7.0,86,0.00,,,0.00,VWS V14.01,2013-11-24 22:00:00,
2013-11-24 17:05:00,16.1,12.7,30.39,SW,218,1.4,7.0,86,0.00,,,0.00,VWS V14.01,2013-11-24 22:05:00,
2013-11-24 17:10:00,16.0,12.6,30.39,SSW,207,0.0,7.0,86,0.00,,,0.00,VWS V14.01,2013-11-24 22:10:00,
2013-11-24 17:15:00,15.9,12.7,30.38,SSW,207,0.0,7.0,87,0.00,,,0.00,VWS V14.01,2013-11-24 22:15:00,
2013-11-24 17:20:00,15.7,12.5,30.38,SSW,207,0.0,7.0,87,0.00,,,0.00,VWS V14.01,2013-11-24 22:20:00,
2013-11-24 17:25:00,15.6,12.4,30.37,South,173,2.8,7.0,87,0.00,,,0.00,VWS V14.01,2013-11-24 22:25:00,
2013-11-24 17:30:00,15.7,12.5,30.37,South,181,2.8,7.0,87,0.00,,,0.00,VWS V14.01,2013-11-24 22:30:00,
2013-11-24 17:35:00,15.8,12.6,30.36,South,181,1.4,7.0,87,0.00,,,0.00,VWS V14.01,2013-11-24 22:35:00,
2013-11-24 17:40:00,16.0,12.8,30.36,South,169,2.8,7.0,87,0.00,,,0.00,VWS V14.01,2013-11-24 22:40:00,
2013-11-24 17:45:00,16.1,12.9,30.35,South,174,2.8,7.0,87,0.00,,,0.00,VWS V14.01,2013-11-24 22:45:00,
2013-11-24 17:50:00,16.4,13.2,30.35,South,170,4.2,7.0,87,0.00,,,0.00,VWS V14.01,2013-11-24 22:50:00,
2013-11-24 17:55:00,16.5,13.3,30.35,SSE,163,2.8,7.0,87,0.00,,,0.00,VWS V14.01,2013-11-24 22:55:00,
2013-11-24 18:00:00,16.6,13.4,30.34,SSE,162,4.2,5.6,87,0.00,,,0.00,VWS V14.01,2013-11-24 23:00:00,
2013-11-24 18:05:00,16.7,13.5,30.34,SSE,167,2.8,5.6,87,0.00,,,0.00,VWS V14.01,2013-11-24 23:05:00,
2013-11-24 18:10:00,16.8,13.6,30.34,South,181,1.4,5.6,87,0.00,,,0.00,VWS V14.01,2013-11-24 23:10:00,
2013-11-24 18:15:00,16.9,13.4,30.34,SSE,158,2.8,7.0,86,0.00,,,0.00,VWS V14.01,2013-11-24 23:15:00,
2013-11-24 18:20:00,17.0,13.5,30.33,South,176,4.2,8.4,86,0.00,,,0.00,VWS V14.01,2013-11-24 23:20:00,
2013-11-24 18:25:00,17.0,13.3,30.33,SSE,157,5.6,8.4,85,0.00,,,0.00,VWS V14.01,2013-11-24 23:25:00,
2013-11-24 18:30:00,17.1,13.4,30.33,South,178,4.2,8.4,85,0.00,,,0.00,VWS V14.01,2013-11-24 23:30:00,
2013-11-24 18:35:00,17.1,13.4,30.32,SSE,167,4.2,8.4,85,0.00,,,0.00,VWS V14.01,2013-11-24 23:35:00,
2013-11-24 18:40:00,17.1,13.4,30.32,South,179,4.2,8.4,85,0.00,,,0.00,VWS V14.01,2013-11-24 23:40:00,
2013-11-24 18:45:00,17.0,13.3,30.32,South,169,5.6,8.4,85,0.00,,,0.00,VWS V14.01,2013-11-24 23:45:00,
2013-11-24 18:50:00,17.0,13.5,30.32,SSE,159,5.6,8.4,86,0.00,,,0.00,VWS V14.01,2013-11-24 23:50:00,
2013-11-24 18:55:00,17.0,13.5,30.31,SSE,155,7.0,9.8,86,0.00,,,0.00,VWS V14.01,2013-11-24 23:55:00,
2013-11-24 19:00:00,17.0,13.3,30.31,South,172,7.0,9.8,85,0.00,,,0.00,VWS V14.01,2013-11-25 00:00:00,
2013-11-24 19:05:00,17.1,13.6,30.30,SSE,158,7.0,9.8,86,0.00,,,0.00,VWS V14.01,2013-11-25 00:05:00,
2013-11-24 19:10:00,17.0,13.5,30.30,SSE,166,7.0,11.2,86,0.00,,,0.00,VWS V14.01,2013-11-25 00:10:00,
2013-11-24 19:15:00,17.0,13.5,30.30,ESE,113,8.4,11.2,86,0.00,,,0.00,VWS V14.01,2013-11-25 00:15:00,
2013-11-24 19:20:00,17.0,13.5,30.29,SE,138,5.6,11.2,86,0.00,,,0.00,VWS V14.01,2013-11-25 00:20:00,
2013-11-24 19:25:00,17.1,13.4,30.30,SE,134,5.6,12.6,85,0.00,,,0.00,VWS V14.01,2013-11-25 00:25:00,
2013-11-24 19:30:00,17.1,13.4,30.29,SSE,163,7.0,12.6,85,0.00,,,0.00,VWS V14.01,2013-11-25 00:30:00,
2013-11-24 19:35:00,17.1,13.6,30.29,SSE,165,5.6,12.6,86,0.00,,,0.00,VWS V14.01,2013-11-25 00:35:00,
2013-11-24 19:40:00,17.0,13.5,30.28,SE,134,9.8,12.6,86,0.00,,,0.00,VWS V14.01,2013-11-25 00:40:00,
2013-11-24 19:45:00,17.0,13.8,30.28,SSE,162,7.0,12.6,87,0.00,,,0.00,VWS V14.01,2013-11-25 00:45:00,
2013-11-24 19:50:00,16.9,13.7,30.27,SSE,153,4.2,12.6,87,0.00,,,0.00,VWS V14.01,2013-11-25 00:50:00,
2013-11-24 19:55:00,16.9,14.0,30.27,SSE,160,7.0,12.6,88,0.00,,,0.00,VWS V14.01,2013-11-25 00:55:00,
2013-11-24 20:00:00,16.9,14.2,30.26,SSE,159,4.2,8.4,89,0.00,,,0.00,VWS V14.01,2013-11-25 01:00:00,
2013-11-24 20:05:00,16.9,14.2,30.26,South,170,9.8,11.2,89,0.00,,,0.00,VWS V14.01,2013-11-25 01:05:00,
2013-11-24 20:10:00,16.9,14.5,30.25,SSE,158,7.0,12.6,90,0.00,,,0.00,VWS V14.01,2013-11-25 01:10:00,
2013-11-24 20:15:00,16.9,14.5,30.24,SSE,160,5.6,12.6,90,0.00,,,0.00,VWS V14.01,2013-11-25 01:15:00,
2013-11-24 20:20:00,17.0,14.6,30.23,South,169,5.6,12.6,90,0.00,,,0.00,VWS V14.01,2013-11-25 01:20:00,
2013-11-24 20:25:00,17.1,14.9,30.23,South,169,7.0,12.6,91,0.00,,,0.00,VWS V14.01,2013-11-25 01:25:00,
2013-11-24 20:30:00,17.2,15.0,30.23,South,171,11.2,12.6,91,0.00,,,0.00,VWS V14.01,2013-11-25 01:30:00,
2013-11-24 20:35:00,17.4,15.2,30.22,SSE,166,9.8,14.0,91,0.00,,,0.00,VWS V14.01,2013-11-25 01:35:00,
2013-11-24 20:40:00,17.5,15.3,30.22,South,171,11.2,14.0,91,0.00,,,0.00,VWS V14.01,2013-11-25 01:40:00,
2013-11-24 20:45:00,17.7,15.5,30.21,SSE,166,9.8,14.0,91,0.00,,,0.00,VWS V14.01,2013-11-25 01:45:00,
2013-11-24 20:50:00,17.9,15.7,30.21,SSE,159,8.4,14.0,91,0.00,,,0.00,VWS V14.01,2013-11-25 01:50:00,
2013-11-24 20:55:00,18.1,15.9,30.20,SSE,155,7.0,14.0,91,0.00,,,0.00,VWS V14.01,2013-11-25 01:55:00,
2013-11-24 21:00:00,18.4,16.5,30.20,SSE,162,7.0,14.0,92,0.00,,,0.00,VWS V14.01,2013-11-25 02:00:00,
2013-11-24 21:05:00,18.7,16.8,30.20,SSE,162,11.2,14.0,92,0.00,,,0.00,VWS V14.01,2013-11-25 02:05:00,
2013-11-24 21:10:00,19.0,17.1,30.19,SE,146,11.2,14.0,92,0.00,,,0.00,VWS V14.01,2013-11-25 02:10:00,
2013-11-24 21:15:00,19.3,17.4,30.19,SSE,153,12.6,15.4,92,0.00,,,0.00,VWS V14.01,2013-11-25 02:15:00,
2013-11-24 21:20:00,19.8,17.9,30.18,SSE,165,15.4,23.8,92,0.00,,,0.00,VWS V14.01,2013-11-25 02:20:00,
2013-11-24 21:25:00,20.1,17.9,30.17,SSE,156,18.2,23.8,91,0.00,,,0.00,VWS V14.01,2013-11-25 02:25:00,
2013-11-24 21:30:00,20.3,17.8,30.17,South,176,15.4,23.8,90,0.00,,,0.00,VWS V14.01,2013-11-25 02:30:00,
2013-11-24 21:35:00,20.4,17.7,30.17,South,169,12.6,28.0,89,0.00,,,0.00,VWS V14.01,2013-11-25 02:35:00,
2013-11-24 21:40:00,20.4,17.7,30.17,SSE,155,9.8,28.0,89,0.00,,,0.00,VWS V14.01,2013-11-25 02:40:00,
2013-11-24 21:45:00,20.5,17.8,30.17,SE,145,11.2,28.0,89,0.00,,,0.00,VWS V14.01,2013-11-25 02:45:00,
2013-11-24 21:50:00,20.6,17.6,30.16,SSE,166,15.4,28.0,88,0.00,,,0.00,VWS V14.01,2013-11-25 02:50:00,
2013-11-24 21:55:00,20.6,17.6,30.16,SSE,156,9.8,28.0,88,0.00,,,0.00,VWS V14.01,2013-11-25 02:55:00,
2013-11-24 22:00:00,20.7,17.7,30.16,South,184,7.0,15.4,88,0.00,,,0.00,VWS V14.01,2013-11-25 03:00:00,
2013-11-24 22:05:00,20.8,17.8,30.17,South,187,12.6,25.2,88,0.00,,,0.00,VWS V14.01,2013-11-25 03:05:00,
2013-11-24 22:10:00,20.8,17.5,30.17,SW,225,7.0,25.2,87,0.00,,,0.00,VWS V14.01,2013-11-25 03:10:00,
2013-11-24 22:15:00,20.9,17.6,30.17,SSE,158,11.2,25.2,87,0.00,,,0.00,VWS V14.01,2013-11-25 03:15:00,
2013-11-24 22:20:00,21.0,17.8,30.17,SW,219,9.8,25.2,87,0.00,,,0.00,VWS V14.01,2013-11-25 03:20:00,
2013-11-24 22:25:00,21.0,17.5,30.16,South,169,8.4,25.2,86,0.00,,,0.00,VWS V14.01,2013-11-25 03:25:00,
2013-11-24 22:30:00,21.1,17.6,30.16,SW,224,8.4,25.2,86,0.00,,,0.00,VWS V14.01,2013-11-25 03:30:00,
2013-11-24 22:35:00,21.2,17.7,30.16,SSE,166,23.8,25.2,86,0.00,,,0.00,VWS V14.01,2013-11-25 03:35:00,
2013-11-24 22:40:00,21.2,17.4,30.16,SSE,148,9.8,25.2,85,0.00,,,0.00,VWS V14.01,2013-11-25 03:40:00,
2013-11-24 22:45:00,21.2,17.7,30.15,SSE,165,7.0,25.2,86,0.00,,,0.00,VWS V14.01,2013-11-25 03:45:00,
2013-11-24 22:50:00,21.3,17.5,30.15,SSW,211,12.6,25.2,85,0.00,,,0.00,VWS V14.01,2013-11-25 03:50:00,
2013-11-24 22:55:00,21.3,17.5,30.15,South,176,14.0,25.2,85,0.00,,,0.00,VWS V14.01,2013-11-25 03:55:00,
2013-11-24 23:00:00,21.3,17.5,30.15,South,172,8.4,25.2,85,0.00,,,0.00,VWS V14.01,2013-11-25 04:00:00,
2013-11-24 23:05:00,21.4,17.3,30.15,South,180,5.6,25.2,84,0.00,,,0.00,VWS V14.01,2013-11-25 04:05:00,
2013-11-24 23:10:00,21.4,17.3,30.14,SSE,163,9.8,25.2,84,0.00,,,0.00,VWS V14.01,2013-11-25 04:10:00,
2013-11-24 23:15:00,21.4,17.3,30.14,South,169,9.8,25.2,84,0.00,,,0.00,VWS V14.01,2013-11-25 04:15:00,
2013-11-24 23:20:00,21.5,17.7,30.14,SSW,203,5.6,25.2,85,0.00,,,0.00,VWS V14.01,2013-11-25 04:20:00,
2013-11-24 23:25:00,21.5,17.4,30.13,South,170,12.6,25.2,84,0.00,,,0.00,VWS V14.01,2013-11-25 04:25:00,
2013-11-24 23:30:00,21.6,17.5,30.13,South,169,11.2,25.2,84,0.00,,,0.00,VWS V14.01,2013-11-25 04:30:00,
2013-11-24 23:35:00,21.6,17.5,30.12,SSE,168,7.0,25.2,84,0.00,,,0.00,VWS V14.01,2013-11-25 04:35:00,
2013-11-24 23:40:00,21.7,17.6,30.12,SSW,212,8.4,25.2,84,0.00,,,0.00,VWS V14.01,2013-11-25 04:40:00,
2013-11-24 23:45:00,21.7,17.6,30.12,South,186,12.6,25.2,84,0.00,,,0.00,VWS V14.01,2013-11-25 04:45:00,
2013-11-24 23:50:00,21.9,17.8,30.11,SSE,167,7.0,25.2,84,0.00,,,0.00,VWS V14.01,2013-11-25 04:50:00,
2013-11-24 23:55:00,21.9,17.8,30.10,South,176,7.0,25.2,84,0.00,,,0.00,VWS V14.01,2013-11-25 04:55:00,